389  
ASUS44 KMEG 032310  
RWRMEG  
MEMPHIS CWA HOURLY WEATHER ROUNDUP  
NATIONAL WEATHER SERVICE MEMPHIS TN  
500 PM CST SAT DEC 03 2022  
   
..WEST TENNESSEE
 
 
 
CITY SKY/WX TMP DP RH WIND PRES REMARKS
 
MEMPHIS INTL PTCLDY 47 32 56 N13 30.42R  
NWS MEMPHIS N/A 47 N/A N/A MISG N/A  
FRAYSER CLEAR 45 30 55 N7 30.43R  
JACKSON CLEAR 45 30 55 N9 30.43R  
SOMERVILLE CLEAR 48 32 53 N7 30.40S  
BOLIVAR CLEAR 48 32 53 VRB5 30.39S  
SELMER CLEAR 50 36 57 N6 30.38R  
SAVANNAH CLEAR 52 39 62 N5 30.38R  
DYERSBURG CLEAR 42 28 57 N7 30.47R  
UNION CITY CLEAR 41 25 52 N9 30.44S  
PARIS CLEAR 43 25 49 N7 30.44R  
 
   
..EASTERN ARKANSAS
 
 
 
CITY SKY/WX TMP DP RH WIND PRES REMARKS
 
JONESBORO CLEAR 45 27 49 N5 30.47R  
WEST MEMPHIS CLEAR 45 32 60 MISG 30.44R  
BATESVILLE CLEAR 47 17 30 N5 30.47R  
NEWPORT CLEAR 43 33 68 NE8 30.47R  
WALNUT RIDGE CLEAR 45 25 45 N6 30.47R  
BLYTHEVILLE CLEAR 41 29 62 N14 30.46R  
SEARCY CLEAR 48 24 39 N5 30.46S  
STUTTGART CLEAR 48 31 51 N12 30.45R  
PINE BLUFF CLEAR 52 32 46 N9 30.43R  
MONTICELLO CLEAR 53 34 48 NE7 30.40R  
 
   
..NORTH MISSISSIPPI
 
 
 
CITY SKY/WX TMP DP RH WIND PRES REMARKS
 
TUPELO CLOUDY 58 46 64 N15 30.36R  
OXFORD PTCLDY 52 37 58 N8 30.40R  
BATESVILLE CLEAR 54 36 50 N6G14 30.39R  
OLIVE BRANCH CLEAR 46 32 57 N9G16 30.40R  
TUNICA CLEAR 47 36 67 N12 30.43R  
CLARKSDALE CLEAR 50 41 71 N10G21 30.42R  
CORINTH PTCLDY 52 37 58 N5 30.38R  
IUKA FAIR 51 46 82 VRB3 30.38R  
GREENWOOD CLOUDY 58 46 64 N8 30.35R  
COLUMBUS CLEAR 64 56 74 N8 30.28R  
STARKVILLE CLOUDY 66 59 77 VRB3 30.30R  
GOLDEN TRIANGL PTCLDY 65 58 78 N8 30.31R  
 
   
..SOUTHEAST MISSOURI
 
 
 
CITY SKY/WX TMP DP RH WIND PRES REMARKS
 
KENNETT CLEAR 41 28 60 NE7 30.46S  
MALDEN CLEAR 43 28 56 NE6 30.49S  
WEST PLAINS PTCLDY 37 15 40 N5 30.46F WCI 33  
POPLAR BLUFF CLEAR 39 23 52 N6 30.47S WCI 35  
CAPE GIRARDEAU CLEAR 37 22 54 N8 30.48F WCI 31  
 
   
..NORTHWEST ALABAMA
 
 
 
CITY SKY/WX TMP DP RH WIND PRES REMARKS
 
MUSCLE SHOALS MOCLDY 58 47 66 N8 30.35R  
 
   
..MIDDLE TENNESSEE
 
 
 
CITY SKY/WX TMP DP RH WIND PRES REMARKS
 
NASHVILLE PTCLDY 48 30 49 N10 30.41R  
CLARKSVILLE CLEAR 41 24 51 N8 30.44R  
DICKSON CLEAR 45 27 49 NE7 30.39R  
COLUMBIA CLEAR 48 34 57 N6 30.38R  
LAWRENCEBURG CLOUDY 48 36 61 N6 30.37R  
LEWISBURG CLOUDY 48 36 61 N9 30.38R  
 
   
..WESTERN KENTUCKY
 
 
 
CITY SKY/WX TMP DP RH WIND PRES REMARKS
 
PADUCAH CLEAR 41 22 46 N5 30.46R  
FORT CAMPBELL CLEAR 41 24 52 N6 30.42R  
 
   
..CENTRAL ARKANSAS
 
 
 
CITY SKY/WX TMP DP RH WIND PRES REMARKS
 
LITTLE ROCK PTCLDY 50 25 37 N8 30.44S  
 
SKY/WX REPORTED AS FAIR MEANS FEW OR NO CLOUDS BELOW  
12 THOUSAND FEET.  
 
 
 
CLICK HERE TO GO TO PREVIOUS BULLETINS.

The Nexlab TN Page
The Nexlab MS Page
The Nexlab AR Page Main Text Page